�������C�����ː����j�^�v���󋵏��
Date,Time,Cs137(Bq/L),Cs134(Bq/L),�S��(Bq/L)
2016/12/31,00:00,0.56,0.078,ND
2016/12/31,00:10,0.52,0.047,ND
2016/12/31,00:20,0.55,0.068,ND
2016/12/31,00:30,0.53,0.068,ND
2016/12/31,00:40,0.49,0.051,ND
2016/12/31,00:50,0.43,0.085,ND
2016/12/31,01:00,0.42,0.086,ND
2016/12/31,01:10,0.54,0.046,ND
2016/12/31,01:20,0.45,0.077,ND
2016/12/31,01:30,0.48,0.072,ND
2016/12/31,01:40,0.48,0.078,ND
2016/12/31,01:50,0.49,0.076,ND
2016/12/31,02:00,0.52,0.066,ND
2016/12/31,02:10,0.54,0.071,ND
2016/12/31,02:20,0.62,0.047,ND
2016/12/31,02:30,0.62,0.046,ND
2016/12/31,02:40,0.62,0.052,ND
2016/12/31,02:50,0.63,0.047,ND
2016/12/31,03:00,0.62,0.041,ND
2016/12/31,03:10,0.63,0.039,10
2016/12/31,03:20,0.60,0.055,12
2016/12/31,03:30,0.59,0.049,13
2016/12/31,03:40,0.58,0.031,12
2016/12/31,03:50,0.56,0.035,14
2016/12/31,04:00,0.56,0.035,12
2016/12/31,04:10,0.53,0.035,9.5
2016/12/31,04:20,0.56,0.028,ND
2016/12/31,04:30,0.57,0.032,ND
2016/12/31,04:40,0.56,0.043,ND
2016/12/31,04:50,0.58,0.036,ND
2016/12/31,05:00,0.58,ND,ND
2016/12/31,05:10,0.53,0.043,ND
2016/12/31,05:20,0.63,ND,ND
2016/12/31,05:30,0.61,ND,ND
2016/12/31,05:40,0.59,ND,ND
2016/12/31,05:50,0.54,0.043,9.7
2016/12/31,06:00,0.55,0.045,9.0
2016/12/31,06:10,0.57,0.044,9.6
2016/12/31,06:20,0.54,0.067,ND
2016/12/31,06:30,0.52,0.041,11
2016/12/31,06:40,0.61,0.044,10
2016/12/31,06:50,0.58,0.053,10
2016/12/31,07:00,0.58,0.046,ND
2016/12/31,07:10,0.56,0.046,ND
2016/12/31,07:20,0.53,0.049,8.9
2016/12/31,07:30,0.53,0.052,11
2016/12/31,07:40,0.53,0.042,10
2016/12/31,07:50,0.44,0.082,11
2016/12/31,08:00,0.45,0.079,11
2016/12/31,08:10,0.56,0.041,10
2016/12/31,08:20,0.58,0.037,9.7
2016/12/31,08:30,0.59,0.033,ND
2016/12/31,08:40,0.60,0.038,ND
2016/12/31,08:50,0.62,0.028,ND
2016/12/31,09:00,0.58,0.035,ND
2016/12/31,09:10,0.64,ND,ND
2016/12/31,09:20,0.55,0.061,ND
2016/12/31,09:30,0.57,0.066,ND
2016/12/31,09:40,0.54,0.070,ND
2016/12/31,09:50,0.59,0.032,ND
2016/12/31,10:00,0.54,0.070,ND
2016/12/31,10:10,0.51,0.079,ND
2016/12/31,10:20,0.55,0.073,ND
2016/12/31,10:30,0.62,0.036,ND
2016/12/31,10:40,0.62,0.037,ND
2016/12/31,10:50,0.50,0.080,ND
2016/12/31,11:00,0.59,0.059,ND
2016/12/31,11:10,0.60,0.038,ND
2016/12/31,11:20,0.60,0.068,ND
2016/12/31,11:30,0.62,0.036,ND
2016/12/31,11:40,0.61,0.035,ND
2016/12/31,11:50,0.61,0.035,ND
2016/12/31,12:00,0.58,0.043,ND
2016/12/31,12:10,0.62,0.040,ND
2016/12/31,12:20,0.56,0.074,ND
2016/12/31,12:30,0.57,0.065,9.0
2016/12/31,12:40,0.57,0.062,10
2016/12/31,12:50,0.56,0.067,ND
2016/12/31,13:00,0.59,0.058,ND
2016/12/31,13:10,0.55,0.057,ND
2016/12/31,13:20,0.56,0.052,9.5
2016/12/31,13:30,0.57,0.038,ND
2016/12/31,13:40,0.58,0.043,ND
2016/12/31,13:50,0.57,0.048,ND
2016/12/31,14:00,0.55,0.052,ND
2016/12/31,14:10,0.52,0.083,ND
2016/12/31,14:20,0.53,0.078,ND
2016/12/31,14:30,0.55,0.072,ND
2016/12/31,14:40,0.54,0.076,ND
2016/12/31,14:50,0.56,0.066,ND
2016/12/31,15:00,0.57,0.073,ND
2016/12/31,15:10,0.56,0.073,ND
2016/12/31,15:20,0.60,0.043,ND
2016/12/31,15:30,0.55,0.073,ND
2016/12/31,15:40,0.59,0.035,ND
2016/12/31,15:50,0.60,0.029,ND
2016/12/31,16:00,0.59,0.030,ND
2016/12/31,16:10,0.51,0.062,ND
2016/12/31,16:20,0.50,0.068,ND
2016/12/31,16:30,0.50,0.069,ND
2016/12/31,16:40,0.51,0.063,ND
2016/12/31,16:50,0.56,0.062,9.7
2016/12/31,17:00,0.55,0.035,9.0
2016/12/31,17:10,0.56,0.059,ND
2016/12/31,17:20,0.56,0.060,9.0
2016/12/31,17:30,0.55,0.061,9.7
2016/12/31,17:40,0.56,0.040,ND
2016/12/31,17:50,0.45,0.088,ND
2016/12/31,18:00,0.46,0.084,ND
2016/12/31,18:10,0.47,0.084,ND
2016/12/31,18:20,0.45,0.088,ND
2016/12/31,18:30,0.47,0.081,ND
2016/12/31,18:40,0.47,0.082,ND
2016/12/31,18:50,0.47,0.078,ND
2016/12/31,19:00,0.47,0.073,ND
2016/12/31,19:10,0.51,0.067,ND
2016/12/31,19:20,0.53,0.068,ND
2016/12/31,19:30,0.56,0.076,ND
2016/12/31,19:40,0.58,0.076,ND
2016/12/31,19:50,0.58,0.087,ND
2016/12/31,20:00,0.60,0.091,ND
2016/12/31,20:10,0.62,0.096,ND
2016/12/31,20:20,0.61,0.099,10
2016/12/31,20:30,0.63,0.095,10
2016/12/31,20:40,0.79,0.054,9.7
2016/12/31,20:50,0.82,0.053,10
2016/12/31,21:00,0.72,0.098,ND
2016/12/31,21:10,0.71,0.10,ND
2016/12/31,21:20,0.72,0.099,ND
2016/12/31,21:30,0.72,0.099,ND
2016/12/31,21:40,0.67,0.12,ND
2016/12/31,21:50,0.66,0.12,ND
2016/12/31,22:00,0.67,0.12,ND
2016/12/31,22:10,0.70,0.11,ND
2016/12/31,22:20,0.70,0.11,ND
2016/12/31,22:30,0.69,0.12,ND
2016/12/31,22:40,0.72,0.10,ND
2016/12/31,22:50,0.74,0.096,ND
2016/12/31,23:00,0.76,0.090,ND
2016/12/31,23:10,0.73,0.10,ND
2016/12/31,23:20,0.74,0.098,ND
2016/12/31,23:30,0.75,0.094,ND
2016/12/31,23:40,0.74,0.096,ND
2016/12/31,23:50,0.85,0.063,ND
